This demonstration page uses our WeatherBlox Daily Observations layout. Learn more.

Left ArrowRight Arrow

Hourly Observations for April 29, 2021

Temp ( °F °C ) Dew Point ( °F °C ) Humidity (%) Winds ( mph kmh ) Pressure ( in mb ) Visibility ( mi km ) Precip ( " mm )
12:59 am 00:59 Mostly Clear 73 22.8 59 15 62 62 SSW 9 15 29.94 1014 10 16 0.00 0.00
1:59 am 01:59 Mostly Clear 72 22.2 59 15 64 64 SSW 10 17 29.92 1013 10 16 0.00 0.00
2:59 am 02:59 Mostly Clear 71 21.7 59 15 66 66 SW 9 15 29.90 1013 10 16 0.00 0.00
3:59 am 03:59 Mostly Clear 70 21.1 58 14.4 66 66 SW 10 17 29.88 1012 10 16 0.00 0.00
4:59 am 04:59 Clear 69 20.6 58 14.4 68 68 SW 10 17 29.88 1012 10 16 0.00 0.00
5:59 am 05:59 Mostly Clear 68 20 58 14.4 70 70 SW 10 17 29.88 1012 10 16 0.00 0.00
6:59 am 06:59 Mostly Cloudy 68 20 59 15 73 73 SSW 10 17 29.88 1012 10 16 0.00 0.00
7:59 am 07:59 Mostly Cloudy 68 20 59 15 73 73 SW 13 20 29.89 1012 10 16 0.00 0.00
8:59 am 08:59 Mostly Cloudy 72 22.2 61 16.1 68 68 SW 14 22 29.89 1012 10 16 0.00 0.00
9:59 am 09:59 Mostly Cloudy 75 23.9 62 16.7 64 64 WSW 12 19 29.89 1012 10 16 0.00 0.00
10:59 am 10:59 Mostly Cloudy 77 25 63 17.2 62 62 SW 14 22 29.88 1012 10 16 0.00 0.00
11:59 am 11:59 Mostly Cloudy 81 27.2 64 17.8 57 57 SSW 13 20 29.86 1011 10 16 0.00 0.00
12:59 pm 12:59 Partly Cloudy 83 28.3 65 18.3 55 55 SSW 13 20 29.84 1010 10 16 0.00 0.00
1:59 pm 13:59 Partly Cloudy 85 29.4 64 17.8 50 50 SW 14 22 29.81 1010 10 16 0.00 0.00
2:59 pm 14:59 Partly Cloudy 86 30 61 16.1 43 43 SW 17 28 29.78 1009 10 16 0.00 0.00
3:59 pm 15:59 Partly Cloudy 84 28.9 60 15.6 44 44 SW 16 26 29.75 1008 10 16 0.00 0.00
4:59 pm 16:59 Partly Cloudy 83 28.3 60 15.6 46 46 SW 16 26 29.74 1007 10 16 0.00 0.00
5:59 pm 17:59 Cloudy 84 28.9 60 15.6 44 44 SW 13 20 29.72 1006 10 16 0.00 0.00
6:59 pm 18:59 Mostly Cloudy 83 28.3 59 15 44 44 SW 12 19 29.68 1005 10 16 0.00 0.00
7:59 pm 19:59 Mostly Cloudy 82 27.8 58 14.4 44 44 SSW 15 24 29.68 1005 10 16 0.00 0.00
8:59 pm 20:59 Mostly Cloudy 80 26.7 58 14.4 47 47 SW 14 22 29.69 1005 10 16 0.00 0.00
9:59 pm 21:59 Mostly Cloudy 79 26.1 58 14.4 49 49 SSW 13 20 29.69 1005 10 16 0.00 0.00
10:59 pm 22:59 Mostly Cloudy 79 26.1 58 14.4 49 49 SW 15 24 29.67 1005 10 16 0.00 0.00
11:59 pm 23:59 Mostly Cloudy 78 25.6 58 14.4 50 50 SW 15 24 29.66 1004 10 16 0.00 0.00

Powered by AerisWeather